This demonstration page uses our WeatherBlox Daily Observations layout. Learn more.

Left ArrowRight Arrow

Hourly Observations for July 22, 2018

Temp ( °F °C ) Dew Point ( °F °C ) Humidity (%) Winds ( mph kmh ) Pressure ( in mb ) Visibility ( mi km ) Precip ( " mm )
12:59 am 00:59 Mostly Clear 70 21.1 65 18.3 84 84 WSW 13 20 29.77 1008 10 16 0.00 0.00
1:59 am 01:59 Partly Cloudy 70 21.1 65 18.3 84 84 SW 9 15 29.78 1009 10 16 0.00 0.00
2:59 am 02:59 Partly Cloudy 69 20.6 65 18.3 87 87 SW 6 9 29.79 1009 10 16 0.00 0.00
3:59 am 03:59 Mostly Cloudy 69 20.6 66 18.9 90 90 S 3 6 29.79 1009 10 16 0.00 0.00
4:59 am 04:59 Mostly Cloudy 69 20.6 66 18.9 90 90 Calm 29.79 1009 10 16 0.00 0.00
5:59 am 05:59 Cloudy 70 21.1 67 19.4 90 90 Calm 29.80 1009 10 16 0.00 0.00
6:32 am 06:32 Cloudy 70 21.1 68 20 93 93 Calm 29.80 1009 10 16 0.00 0.03
6:59 am 06:59 Cloudy 71 21.7 68 20 90 90 Calm 29.81 1009 10 16 0.00 0.03
7:46 am 07:46 Mostly Cloudy 73 22.8 68 20 84 84 Calm 29.80 1009 10 16 0.00 0.00
7:59 am 07:59 Mostly Cloudy 74 23.3 69 20.6 85 85 E 5 7 29.81 1010 10 16 0.00 0.00
8:11 am 08:11 Mostly Cloudy 76 24.4 71 21.7 85 85 SE 3 6 29.83 1010 10 16 0.00 0.00
8:59 am 08:59 Mostly Cloudy 79 26.1 73 22.8 82 82 S 6 9 29.84 1011 8 13 0.00 0.00
9:59 am 09:59 Mostly Cloudy 83 28.3 75 23.9 77 77 S 8 13 29.83 1010 9 14 0.00 0.00
10:27 am 10:27 Cloudy with Thunderstorms 81 27.2 72 22.2 74 74 SW 9 15 29.83 1010 9 14 0.00 0.03
10:39 am 10:39 Cloudy with Thunderstorms 78 25.6 70 21.1 76 76 S 15 24 29.83 1010 1 2 0.10 2.54
10:42 am 10:42 Cloudy with Thunderstorms 77 25 70 21.1 79 79 SSE 6 9 29.83 1010 1 2 0.13 3.30
10:45 am 10:45 Cloudy with Thunderstorms 77 25 71 21.7 82 82 VRB 6 9 29.83 1010 3 5 0.15 3.81
10:59 am 10:59 Mostly Cloudy with Light Rain 77 25 71 21.7 82 82 SSW 3 6 29.83 1010 4 6 0.16 4.06
11:59 am 11:59 Mostly Cloudy 82 27.8 73 22.8 74 74 SSE 3 6 29.82 1010 10 16 0.00 0.03
12:59 pm 12:59 Mostly Cloudy 86 30 71 21.7 61 61 SSE 10 17 29.82 1010 10 16 0.00 0.00
1:59 pm 13:59 Mostly Cloudy 86 30 72 22.2 63 63 SSE 12 19 29.80 1009 10 16 0.00 0.00
2:59 pm 14:59 Mostly Cloudy 88 31.1 75 23.9 66 66 SSE 14 22 29.78 1008 10 16 0.00 0.00
3:52 pm 15:52 Cloudy with Thunderstorms 86 30 74 23.3 67 67 SSE 13 20 29.80 1009 10 16 0.00 0.00
3:59 pm 15:59 Cloudy with Thunderstorms 85 29.4 74 23.3 70 70 S 7 11 29.80 1009 10 16 0.00 0.00
4:59 pm 16:59 Mostly Cloudy 78 25.6 71 21.7 79 79 N 13 20 29.80 1009 10 16 0.00 0.00
5:08 pm 17:08 Cloudy 78 25.6 71 21.7 79 79 N 12 19 29.80 1009 10 16 0.00 0.00
5:59 pm 17:59 Mostly Cloudy 79 26.1 71 21.7 77 77 NNE 9 15 29.81 1010 10 16 0.00 0.00
6:59 pm 18:59 Mostly Cloudy 86 30 72 22.2 63 63 SSE 9 15 29.80 1009 10 16 0.00 0.00
7:59 pm 19:59 Mostly Cloudy 85 29.4 74 23.3 70 70 SSE 13 20 29.82 1010 10 16 0.00 0.00
8:57 pm 20:57 Mostly Cloudy with Thunderstorms 84 29 75 24 74 74 SE 10 17 29.83 1010 10 16 0.00 0.00
8:59 pm 20:59 Mostly Cloudy with Thunderstorms 83 28.3 75 23.9 77 77 SE 12 19 29.84 1011 9 14 0.00 0.00
9:30 pm 21:30 Cloudy with Light Rain 79 26.1 74 23.3 85 85 SSE 8 13 29.85 1011 8 13 0.02 0.51
9:59 pm 21:59 Cloudy 79 26.1 73 22.8 82 82 SSE 9 15 29.87 1011 10 16 0.02 0.51
10:59 pm 22:59 Cloudy 78 25.6 71 21.7 79 79 SSW 10 17 29.89 1012 10 16 0.00 0.00
11:44 pm 23:44 Cloudy with Thunderstorms 77 25 69 20.6 77 77 SSE 8 13 29.88 1012 10 16 0.00 0.00
11:59 pm 23:59 Cloudy with Thunderstorms 76 24.4 69 20.6 79 79 S 12 19 29.90 1013 10 16 0.00 0.00

Powered by AerisWeather